Regional Weather Roundup
Issued by NWS

Home | Current Version | Previous Version | Text Only | Print | Product List | Glossary Off
Versions: 1 2 3 4 5 6 7 8 9 10 11 12 13 14 15 16 17 18 19 20 21 22 23 24 25 26 27 28 29 30 31 32 33 34 35 36 37 38 39 40 41 42 43 44 45 46 47 48 49 50

000
ASUS43 KLMK 130610
RWRKY
KENTUCKY REGIONAL WEATHER ROUNDUP
NATIONAL WEATHER SERVICE LOUISVILLE KY
100 AM EST SAT FEB 13 2016

NOTE "FAIR" INDICATES FEW OR NO CLOUDS BELOW 12,000 FEET
WITH NO SIGNIFICANT WEATHER AND/OR OBSTRUCTIONS TO VISIBILITY.

KYZ001>023-026-027-061>063-070>075-130700-
WESTERN AND SOUTH CENTRAL KENTUCKY

CITY           SKY/WX    TMP DP  RH WIND       PRES   REMARKS
PADUCAH        CLEAR     25  10  53 N12       30.47R WCI  14
HENDERSON      CLEAR     23   9  54 NW13      30.45R WCI  11
OWENSBORO      MOCLDY    24  13  63 NW16      30.43R WCI  11
HOPKINSVILLE   CLOUDY    25  15  64 NW9       30.42R WCI  16
BOWLING GREEN  CLOUDY    26  13  57 NW8       30.41R WCI  18
GLASGOW        CLOUDY    24  12  60 NW7       30.38R WCI  16
$$

KYZ024-025-028>034-038-045-046-053-130700-
NORTH CENTRAL KENTUCKY

CITY           SKY/WX    TMP DP  RH WIND       PRES   REMARKS
LOUISVILLE/SDF CLOUDY    24   6  46 NW13G21   30.37R WCI  12
LOUISVILLE/LOU MOCLDY    24   5  44 NW17G24   30.37R WCI  11
FORT KNOX      CLOUDY    23   7  50 NW14G24   30.35R WCI  11
$$

KYZ035>037-039>044-047>052-055>060-089>105-130700-
NORTHEAST KENTUCKY

CITY           SKY/WX    TMP DP  RH WIND       PRES   REMARKS
LEXINGTON      CLOUDY    23   9  55 NW12      30.30R WCI  12
COVINGTON      PTCLDY    19   6  57 NW16      30.31R WCI   4
FRANKFORT      LGT SNOW  21  14  74 NW13G22   30.33R WCI   9
$$

KYZ054-064>069-076>088-106>120-130700-
SOUTHEAST KENTUCKY

CITY           SKY/WX    TMP DP  RH WIND       PRES   REMARKS
JACKSON        LGT SNOW  20  14  77 VRB7G18   30.24R WCI  11
LONDON         CLOUDY    24  11  57 NW9       30.27R WCI  14
SOMERSET       CLOUDY    27  12  54 W10       30.33R WCI  17
MIDDLESBORO    CLOUDY    28  17  65 W10G20    30.26R WCI  18
MONTICELLO     CLOUDY    25  13  60 NW15G22   30.34R WCI  13
$$




USA.gov is the U.S. government's official web portal to all federal, state and local government web resources and services.